Location: Bouchavesnes-Bergen
(49.9859°N, 2.9203°E)
Time: 22:00:55
(UTC+00:00)

CZ-4C R/B - Pass Details

Date: 09 March 2021
Orbit: 614 x 1388 km, 63.4° (Epoch: 12 April)

Event Time Altitude Azimuth Distance (km) Brightness Sun altitude
Exits shadow 04:10:14 17° 187° (S) 1,765 3.6 -20.6°
Maximum altitude 04:13:46 45° 121° (ESE) 1,060 3.0 -20.1°
Drops below altitude 10° 04:19:21 10° 50° (NE) 2,595 5.7 -19.2°
Sets 04:22:14 0° 45° (NE) 3,675 6.6 -18.7°
